Find Starlink 32460

NORAD ID: 61914 Int'l Des: 2024-207 Owner: SPXS Country: US Constellation: starlink operational
LEOCIRCULAR

Aktuelle Ansicht

3D-Globus wird geladen...

Über Starlink 32460

Beschreibung wird geladen...

Nächste Überflüge

Passes for default location (London). Set your location on the main map for personalized predictions.

Höhenverlauf

Loading altitude history...

Zweizeiliger Elementsatz

1 61914U 24207C 26150.13952771 .00020788 00000-0 76248-3 0 9990
2 61914 42.9985 181.3373 0001414 223.1406 136.9335 15.27593800 87188
Epoch: 30. Mai 2026 • Age: 8 hours

Aktueller Status

Höhe 484.1 km
Geschwindigkeit 7.63 km/s
Subsatellitenpunkt 27.30°N, 154.19°E
Startdatum 11. Nov. 2024
Alter 1.5 years
Typ internet

Technische Details

Klassifizierung Payload
Masse 730.00 kg
Trockenmasse 700.00 kg
Gesamtmasse 730.00 kg
Länge 0.30 m
Durchmesser 4.10 m
Spannweite 29.00 m
Form Box + pan
Hersteller SPXS
Bus-Typ Starlink V2M
Phasenstatus In Orbit
Besitzer/Staat SPXS/US

Most Searched